Helicity
21 11 13 35 50 45 26 15 -5 139 160 218 142 175 205 150 169 202 51 208 244 166 119 101 74 46 54 62 61 72 75 64 54 55 44 30 35 38 35 29 23 13 13 11 11 12 9 9 5
20 23 29 40 53 57 18 30 136 210 174 157 221 153 190 200 103 154 245 201 184 180 109 100 78 59 69 60 62 66 60 55 54 52 42 37 38 37 36 25 11 7 11 14 16 16 18 18 14
23 58 60 33 5 31 20 63 142 40 37 99 121 137 99 134 144 126 112 79 167 141 109 96 57 51 51 54 57 70 69 58 60 51 41 38 39 37 31 16 13 16 22 21 14 13 13 12 11
40 41 33 53 29 -10 -23 -54 71 135 107 125 48 87 95 171 107 101 168 251 309 183 119 79 32 45 62 63 73 81 76 71 70 56 42 41 41 35 24 21 25 25 27 22 15 14 11 4 7
57 52 24 25 -28 47 21 124 163 222 207 44 54 100 75 78 204 63 122 103 211 231 200 85 53 40 52 64 80 86 80 74 71 51 46 48 33 25 20 27 28 27 22 18 9 2 -8 -16 -12
21 -3 55 -14 15 39 68 193 247 172 28 -11 42 95 86 14 129 120 152 206 200 215 178 35 35 39 51 81 91 82 79 75 63 51 48 34 20 15 18 33 31 24 14 10 -0 -8 -26 -33 -24
30 6 3 19 13 87 124 218 210 32 -58 95 119 87 79 27 111 100 121 172 216 137 139 79 -10 36 111 105 87 70 73 62 50 37 33 26 11 14 23 25 26 18 10 3 -4 -6 -18 -31 -34
51 45 46 24 38 58 147 99 78 164 191 80 101 8 93 269 231 239 139 148 261 64 -12 -78 17 60 92 70 52 63 48 43 31 19 13 3 4 5 13 24 37 21 12 13 8 -7 -21 -11 -12
14 35 53 51 22 245 339 124 -55 59 102 113 72 17 112 205 147 129 176 140 68 53 -82 -30 15 4 2 36 51 48 27 20 11 6 -8 -11 -15 -0 9 33 39 30 26 18 11 -1 -17 13 27
6 18 50 34 46 45 -47 114 56 44 32 21 -8 92 89 63 49 65 40 -39 -57 -82 -14 -14 -35 -31 -29 16 -25 -16 -7 -26 -24 -9 7 -7 25 31 34 30 26 24 25 33 17 1 15 37 71
-0 51 14 57 86 63 32 -31 56 160 126 109 75 50 45 47 10 8 7 -35 -119 -16 5 9 4 -5 43 -31 -60 -26 -37 -7 20 9 32 44 28 19 48 59 30 26 17 48 74 68 70 84 79
20 5 -4 28 20 -45 -9 54 190 93 5 39 24 91 36 37 12 32 25 60 47 50 86 65 47 15 21 -25 -11 -0 -6 -3 -32 27 54 37 60 125 88 139 95 131 92 39 61 80 135 167 104
7 46 15 40 -26 36 10 102 83 6 -102 -20 76 74 30 6 25 29 -6 22 8 68 60 46 30 60 55 115 123 179 145 104 66 63 77 71 109 122 196 147 58 111 207 111 146 144 123 122 95
7 42 32 26 73 4 65 50 39 10 -26 -90 -20 41 20 18 71 5 25 68 33 80 29 13 29 53 46 126 169 108 67 39 56 42 85 120 128 108 104 83 46 82 112 99 113 143 121 126 130
30 49 24 22 23 -15 82 8 -63 5 18 18 46 36 22 23 64 14 83 104 113 78 31 23 64 37 137 168 119 150 82 -0 31 5 32 56 113 81 116 83 48 87 92 120 133 151 150 144 116
30 32 34 8 40 42 49 72 33 40 39 11 38 47 27 42 61 75 81 61 71 121 92 80 67 145 197 178 143 125 105 155 -17 -82 -28 46 81 86 61 67 112 88 98 110 114 114 154 145 128
18 45 49 3 50 12 82 7 43 -13 57 31 51 45 48 35 52 42 33 35 41 167 150 149 130 198 210 192 169 78 14 14 9 1 -0 58 56 63 84 126 107 80 103 138 172 193 151 127 128
14 44 7 -3 14 12 55 11 68 20 24 46 66 41 56 27 55 68 32 57 13 153 253 219 203 183 191 197 133 91 69 37 33 48 60 45 74 79 87 93 91 81 131 178 194 161 134 123 132
44 28 34 30 31 -12 -3 63 80 18 -12 38 68 73 102 59 88 69 48 84 47 216 322 266 282 256 176 171 94 111 87 93 113 142 108 102 68 65 91 188 191 196 213 197 174 162 174 184 146
59 51 43 41 28 -48 14 10 78 44 36 25 22 77 117 85 154 140 102 125 141 253 304 283 231 169 73 43 61 76 52 95 186 117 109 120 127 121 167 159 175 221 208 173 174 182 168 183 180
69 27 12 19 11 -31 74 -8 67 48 6 9 24 17 58 89 234 189 151 139 143 297 283 204 151 67 -3 -9 91 192 292 208 174 121 107 153 147 178 163 182 193 187 161 147 150 155 166 240 228
45 126 32 23 23 8 17 13 180 232 -5 35 14 19 55 64 179 187 157 161 311 357 219 117 76 39 139 188 189 156 164 255 294 330 323 191 112 110 140 162 194 177 155 145 147 169 225 237 224
-3 59 8 -13 1 -3 44 18 26 100 34 -17 10 52 110 108 191 254 171 260 220 178 75 41 112 228 188 228 258 243 353 342 376 408 343 237 189 253 221 238 219 178 168 176 170 163 213 243 263
6 -11 25 27 26 92 104 155 107 85 69 114 32 25 41 172 274 262 202 249 333 239 252 279 279 227 244 287 368 443 479 508 528 452 312 316 168 196 199 196 159 141 140 145 174 199 268 308 323
-1 -19 -7 66 14 9 32 38 80 28 89 204 -30 146 132 208 211 271 316 392 315 304 257 249 256 292 321 359 374 426 511 480 392 301 193 243 182 180 171 155 135 130 128 132 178 211 260 235 175
65 3 30 8 6 52 107 -12 28 39 40 73 30 174 224 197 215 225 296 278 280 217 173 195 281 308 310 310 410 448 351 322 209 173 235 205 209 170 150 134 129 123 119 119 173 191 184 167 125
1 39 17 -37 -59 1 10 38 54 137 115 54 183 244 195 172 171 224 253 295 263 197 193 232 251 314 311 423 398 290 247 191 229 268 229 222 175 127 161 129 123 115 106 130 182 171 151 124 131
29 47 30 29 12 13 34 20 81 77 65 31 132 204 194 165 177 174 228 286 256 214 230 233 277 346 416 422 303 257 186 229 245 227 195 192 151 154 114 112 108 109 106 101 132 142 126 141 95
18 2 31 37 38 50 36 44 59 70 51 61 15 185 235 241 202 219 236 277 272 254 283 272 315 467 443 350 318 304 176 234 264 168 204 178 155 116 118 106 107 95 86 99 179 183 168 150 118
83 64 18 74 48 83 60 13 33 43 57 40 26 31 229 280 229 261 287 381 362 309 313 318 359 449 397 366 327 250 174 185 196 166 181 168 158 122 127 111 102 106 88 180 156 143 149 139 119
Wind_Speed
36 41 44 49 40 41 61 33 74 30 36 25 30 39 31 40 44 38 13 12 17 15 25 22 21 19 19 21 23 25 28 30 31 31 28 22 24 27 32 36 40 44 47 49 51 53 54 55 55
41 40 41 44 44 57 61 56 29 26 16 22 28 30 30 35 28 13 12 10 17 20 25 23 19 17 17 18 19 23 26 29 29 28 25 20 23 26 32 37 41 44 46 50 52 55 57 57 57
44 49 43 42 49 64 65 43 28 19 19 25 32 29 28 29 21 17 5 10 19 22 19 19 18 17 16 17 15 20 26 27 28 26 22 20 24 28 34 38 42 45 47 50 52 54 56 58 58
36 34 41 53 69 71 63 20 14 17 32 26 21 28 29 34 24 12 7 7 17 13 16 21 18 14 8 11 14 20 24 26 27 23 19 20 25 29 33 38 43 44 47 49 51 53 54 57 59
45 44 40 57 56 69 45 24 28 32 58 24 26 25 28 26 20 14 10 8 14 15 17 12 7 6 3 6 16 19 24 26 25 21 20 22 26 30 34 39 41 44 46 48 50 53 53 55 58
36 39 54 58 65 35 33 17 17 30 16 2 17 22 27 20 14 11 12 9 12 19 27 9 14 10 5 12 18 16 26 26 23 23 22 25 28 30 33 37 40 42 44 45 48 49 52 53 56
58 46 53 67 66 41 27 16 16 11 27 36 33 27 21 16 18 15 15 14 11 10 11 8 42 9 15 18 22 23 23 23 23 23 22 24 28 31 33 36 39 40 42 43 44 48 50 52 54
61 62 70 71 67 14 21 33 21 27 31 26 44 27 18 20 19 21 20 13 3 5 22 13 26 20 23 31 30 26 25 25 23 24 26 28 29 30 32 34 37 39 40 42 44 47 49 48 47
60 61 65 64 67 38 40 50 13 20 19 27 19 17 14 28 23 18 17 18 13 6 18 5 18 45 48 39 26 22 24 25 25 25 24 26 28 27 30 33 34 35 37 38 40 43 46 51 54
57 54 60 46 34 34 34 58 57 32 22 14 7 16 19 24 25 21 27 46 51 58 56 56 56 54 50 38 33 28 25 27 26 27 27 25 27 29 29 27 28 31 33 32 35 38 43 51 59
60 67 53 41 28 41 32 32 24 26 29 40 35 26 17 25 25 14 31 34 46 44 56 50 47 40 32 32 32 29 28 27 26 23 25 25 24 25 24 19 20 32 28 34 30 39 42 54 56
60 63 56 32 29 26 25 24 31 28 34 41 30 27 28 29 26 17 23 40 44 45 42 36 37 35 30 33 27 28 29 30 26 22 23 23 25 26 31 36 37 44 44 48 46 48 54 60 63
57 51 44 34 32 30 26 27 28 23 31 12 32 29 29 30 24 19 18 35 43 38 37 38 39 27 25 26 28 27 29 28 27 26 24 24 26 28 36 41 36 42 46 49 55 56 59 61 62
45 51 42 29 25 24 20 28 28 30 17 20 39 33 30 28 23 21 28 30 35 32 36 38 32 27 30 28 27 28 26 26 26 22 32 31 27 29 40 39 46 41 42 49 54 58 61 63 68
42 46 42 39 11 15 21 20 21 31 36 29 29 27 18 20 25 23 21 22 28 33 39 38 33 34 30 30 29 29 29 27 28 24 19 21 29 34 38 37 36 42 45 47 51 59 60 63 66
45 38 48 27 23 34 31 24 19 16 24 27 29 30 33 24 23 14 14 19 27 32 34 33 30 27 26 26 26 25 20 28 24 27 27 26 30 30 29 29 36 43 42 45 50 53 61 68 72
35 48 50 22 34 12 14 30 16 24 25 30 29 36 37 30 24 24 23 24 28 32 31 26 26 22 21 20 19 26 31 29 25 30 26 29 31 31 32 36 40 42 41 45 52 59 66 69 72
38 48 47 23 27 34 9 16 14 28 30 31 31 27 21 23 21 19 26 26 27 27 26 22 17 17 18 14 17 24 25 26 26 25 29 28 33 35 37 34 37 39 45 51 56 59 60 62 68
41 47 41 21 21 12 11 11 12 31 25 20 11 21 22 19 22 24 24 20 20 18 16 14 14 15 14 11 17 19 20 23 26 30 31 33 33 35 38 45 48 49 52 57 59 61 65 67 68
42 35 13 20 17 9 10 11 24 30 28 26 26 26 23 24 25 17 14 12 10 13 14 12 13 11 11 13 14 17 18 21 26 28 29 31 35 38 41 42 47 53 57 61 62 66 67 62 65
43 24 17 19 20 17 38 41 24 28 26 26 29 28 23 21 17 14 12 10 8 9 9 10 10 11 13 15 18 24 25 25 24 23 23 30 36 41 42 47 50 55 57 60 63 63 62 63 64
44 38 20 41 19 9 35 12 28 38 12 19 23 24 18 18 15 13 10 8 8 7 8 10 14 18 19 18 17 17 17 20 26 27 32 33 36 40 46 51 56 56 56 58 60 59 60 62 65
32 51 47 51 34 45 51 47 65 22 12 25 21 18 13 15 12 9 7 5 4 6 13 17 15 16 16 22 20 21 25 23 28 33 38 41 48 50 53 58 62 64 64 62 61 60 56 56 62
19 35 23 46 56 40 30 14 10 11 19 37 23 13 10 6 6 5 7 8 10 11 11 11 13 15 16 18 23 23 25 27 30 38 42 50 50 50 55 60 63 62 62 63 60 57 57 59 65
34 38 38 37 41 51 52 31 30 4 16 12 30 20 10 3 5 7 7 8 10 8 7 8 10 12 15 18 20 22 26 30 33 38 42 51 50 54 58 62 61 63 63 62 58 58 59 60 67
49 47 40 33 25 54 37 38 40 21 14 8 25 14 9 8 8 11 13 12 11 9 8 7 7 9 12 15 19 22 26 31 32 36 45 47 50 54 57 59 63 63 62 60 60 58 57 57 60
41 37 44 49 48 47 48 62 32 29 30 28 14 12 10 12 14 14 13 10 8 6 4 1 3 7 10 15 20 24 28 29 33 40 43 46 49 53 60 61 62 63 65 65 58 59 59 58 60
46 45 42 43 46 50 51 52 26 31 34 31 12 10 9 8 10 9 7 4 2 2 3 5 6 8 12 16 21 26 27 30 34 39 42 46 50 56 58 61 62 63 63 64 62 58 61 65 64
34 48 46 52 44 41 47 39 35 37 36 28 22 5 3 4 4 5 4 3 4 6 7 10 11 12 16 22 24 26 28 31 36 38 42 47 51 55 59 62 63 63 63 61 64 65 65 65 65
48 48 23 35 48 39 46 62 44 34 35 32 28 17 2 2 4 6 5 5 9 12 13 14 15 17 20 24 26 29 29 31 33 39 44 47 51 55 60 62 63 62 62 63 65 68 64 63 63
Wind_Direction
288 284 279 279 289 290 282 281 253 305 299 332 323 315 315 315 294 291 2 112 101 120 118 116 113 105 93 77 66 56 49 45 39 34 28 14 19 20 24 25 26 29 32 32 30 28 28 26 22
276 276 283 285 279 278 276 288 347 287 10 356 342 327 321 314 323 332 341 36 87 115 120 122 122 112 94 75 59 50 48 47 37 30 26 17 17 16 19 24 29 31 33 36 34 32 30 26 23
263 260 275 277 275 268 267 308 306 326 349 335 330 333 322 327 342 313 34 98 97 114 117 125 127 118 98 75 55 47 46 43 38 29 22 16 19 17 23 28 33 37 39 36 33 31 26 25 21
269 277 278 268 258 254 268 328 330 338 329 318 334 323 328 328 335 355 92 79 88 110 109 125 127 115 108 65 41 43 45 37 36 29 19 15 16 16 22 31 36 37 35 34 34 30 21 19 14
257 267 277 268 273 249 286 325 308 308 313 313 324 335 334 338 350 57 77 105 100 104 100 107 146 161 123 50 41 38 40 38 37 31 27 22 20 26 30 33 34 33 33 35 30 26 22 17 14
270 271 268 269 233 202 306 326 337 334 318 302 4 358 351 358 13 10 27 54 99 120 117 137 216 210 64 43 42 26 45 39 36 35 31 30 30 29 31 34 32 32 32 28 26 26 15 11 12
247 269 270 252 265 295 319 2 321 337 316 23 347 342 15 21 45 40 50 53 67 119 97 123 197 96 61 52 52 41 31 35 37 39 33 30 34 35 33 29 28 25 21 21 21 16 14 9 7
239 252 250 252 247 299 332 305 314 311 310 337 343 338 325 59 43 49 54 37 332 40 91 181 93 75 69 71 65 54 44 46 44 48 51 51 45 42 41 35 25 20 18 16 10 5 6 10 9
231 259 250 239 260 283 296 260 343 3 353 327 349 80 6 45 56 53 47 46 75 177 225 95 73 97 101 90 63 43 48 53 58 57 53 52 52 50 40 26 21 23 20 15 11 5 4 1 358
244 251 235 288 311 307 325 242 250 329 342 359 70 7 41 55 66 66 89 102 110 121 147 117 119 122 118 96 87 70 61 67 71 70 69 57 24 16 27 34 31 24 23 18 18 13 5 356 351
234 232 271 299 344 316 289 284 336 348 311 287 284 84 47 57 63 54 89 100 110 108 114 101 105 100 85 83 89 76 81 74 56 58 33 25 31 32 32 41 40 12 16 20 25 11 358 351 351
239 237 263 300 328 350 104 43 12 353 299 280 313 67 67 63 66 49 63 78 90 96 92 89 93 92 79 88 73 73 72 77 69 38 17 33 23 21 14 2 14 4 1 353 355 356 353 344 342
240 256 273 307 337 98 104 360 17 57 60 288 238 60 64 75 69 56 62 82 97 90 93 101 110 76 66 53 60 42 42 32 37 31 14 36 28 18 1 345 356 357 349 345 344 343 342 342 341
249 253 270 293 303 307 16 31 326 244 77 58 106 82 79 77 66 64 80 76 90 82 96 106 95 79 86 68 62 63 54 60 70 63 337 352 16 11 354 353 345 357 356 346 342 339 338 338 337
251 240 262 255 9 324 47 5 339 60 82 71 74 73 51 66 73 75 67 61 82 91 103 106 95 105 84 79 81 73 71 54 48 58 46 15 356 355 357 2 5 359 355 351 347 341 341 339 337
232 250 210 172 275 266 296 313 343 31 55 80 86 83 97 79 75 42 38 61 84 92 96 98 97 85 81 80 84 75 44 8 31 19 10 9 10 12 21 22 11 1 359 354 349 345 341 336 333
242 215 215 295 142 65 12 282 38 80 67 89 91 103 109 93 77 79 76 82 95 104 101 90 97 84 64 69 40 9 7 19 30 29 47 40 36 33 25 14 7 2 360 355 349 342 338 336 334
218 218 243 282 120 148 65 83 53 111 113 109 107 91 80 88 78 65 92 97 104 99 97 90 73 64 63 62 32 6 15 24 35 50 45 45 32 25 17 18 8 2 354 350 346 343 340 337 335
201 227 211 116 98 95 99 61 64 126 119 107 307 103 105 94 94 96 96 74 97 96 80 65 79 46 49 29 13 28 32 51 50 36 36 31 30 23 12 1 359 356 350 346 343 340 338 336 335
224 178 17 26 26 28 98 101 119 135 136 134 133 131 125 125 119 98 95 79 61 67 70 59 55 56 62 74 62 55 64 50 44 37 31 25 15 8 4 359 353 350 344 340 339 339 337 337 338
215 285 110 7 61 110 277 180 127 137 143 148 150 152 142 138 128 116 111 106 90 51 64 46 59 88 101 86 70 37 38 31 26 26 31 17 5 1 358 352 348 345 343 341 339 339 338 336 337
269 278 324 275 110 351 218 198 298 282 141 157 157 159 153 153 141 132 126 121 42 38 53 70 97 115 56 59 41 32 22 18 20 22 9 6 1 355 352 349 347 345 343 340 339 340 338 337 334
281 239 253 254 305 255 255 295 264 187 198 182 173 164 154 160 154 147 145 115 39 86 120 120 90 45 42 15 32 24 18 20 14 4 357 353 351 350 348 346 345 343 340 339 338 337 336 336 334
325 292 226 289 254 292 205 154 28 195 199 302 234 166 168 149 137 144 130 99 78 77 61 54 50 43 36 22 11 12 9 5 358 351 347 344 343 346 346 345 343 343 341 339 339 338 339 338 336
308 297 298 301 290 283 246 278 322 147 309 354 180 155 154 108 134 133 130 110 104 91 61 62 63 43 30 19 12 7 1 355 348 345 342 341 341 341 341 343 344 342 341 341 341 340 338 336 334
270 277 298 300 322 277 304 299 313 36 49 65 152 120 103 93 104 128 127 121 121 117 114 102 63 33 21 14 6 1 353 346 343 342 341 341 339 340 342 343 342 342 342 341 342 340 337 336 335
300 291 274 275 277 295 290 270 326 338 345 4 84 90 93 104 120 131 132 127 131 138 139 96 14 3 356 353 349 344 342 341 341 342 344 344 344 342 341 342 342 342 342 340 338 338 336 334 333
271 282 284 287 289 289 290 290 322 318 337 350 34 63 85 96 128 145 151 144 162 222 272 295 307 322 338 337 333 334 335 340 341 342 342 343 343 342 341 341 341 341 340 340 339 338 339 338 336
293 276 279 277 294 304 289 292 325 331 342 356 351 37 64 122 164 177 201 228 281 287 287 291 296 307 318 324 326 330 330 335 338 339 341 341 341 341 341 341 340 339 338 339 341 341 341 341 339
279 277 319 301 288 300 286 257 315 340 345 346 345 347 116 196 226 220 243 282 297 294 290 289 295 302 312 320 323 325 326 330 332 336 338 339 338 339 340 340 339 339 339 339 339 338 338 342 342